Flag for U.S.A. Weather past 2 weeks in Aspen, Colorado, U.S.A.

Now
69 °F

Scattered clouds.


Feels Like: 69 °F
Forecast: 43 / 71 °F
Wind: 5 mph from North

Location: Aspen-Pitkin County Airport

Current Time: Aug 29, 2014 at 12:37:55 PM

Latest Report: Aug 29, 2014 at 11:53 AM


Visibility: 10 mi

Pressure: 30.00 "Hg

Humidity: 38%

Dew point: 42 °F

Location of AspenLocation

Historic Weather in Aspen — Graph

°F

Aspen temperature yesterday

Maximum temperature yesterday: 62 °F (at 4:53 PM)
Minimum temperature yesterday: 46 °F (at 11:53 PM)
Average temperature yesterday: 52 °F

Past Weeks' High & Low Weather Summary

 TemperatureHumidityPressure
High82 °F (Aug 17, 2:53 PM)96% (Aug 20, 4:53 AM)30.37 "Hg (Aug 20, 4:53 AM)
Low41 °F (Aug 29, 4:53 AM)15% (Aug 16, 2:53 PM)29.69 "Hg (Aug 19, 2:53 PM)
Average58 °F63%29.97 "Hg
* Reported Aug 14 10:53 AM — Aug 29 10:53 AM, Aspen, Weather by CustomWeather, © 2014

Note: Actual official high and low records may vary slightly from our data, if they occured in-between our weather recording intervals... More about our weather records

Advertising

Aspen weather history for previous 24 hours

 ConditionsComfort  
Time TempWeatherWind HumidityBarometerVisibility
10:53 AM
Aug 29
64 °FPassing clouds.No wind47%30.03 "Hg10 mi
9:53 AM58 °FPassing clouds.No wind62%30.06 "Hg10 mi
8:53 AM53 °FSunny.No wind69%30.07 "Hg10 mi
7:53 AM48 °FSunny.5 mph80%30.09 "Hg10 mi
6:53 AM41 °FClear.No wind89%30.10 "Hg10 mi
5:53 AM44 °FClear.5 mph85%30.06 "Hg10 mi
4:53 AM41 °FClear.5 mph89%30.06 "Hg10 mi
3:53 AM44 °FClear.9 mph85%30.05 "Hg10 mi
2:53 AM44 °FClear.6 mph85%30.07 "Hg10 mi
1:53 AM45 °FClear.7 mph86%30.08 "Hg10 mi
12:53 AM44 °FClear.6 mph89%30.11 "Hg10 mi
11:53 PM
Aug 28
46 °FClear.6 mph86%30.11 "Hg10 mi
10:53 PM48 °FClear.7 mph80%30.10 "Hg10 mi
9:53 PM50 °FPassing clouds.8 mph77%30.09 "Hg10 mi
8:53 PM52 °FPassing clouds.6 mph77%30.07 "Hg10 mi
7:53 PM57 °FPassing clouds.No wind67%30.03 "Hg10 mi
6:53 PM61 °FBroken clouds.8 mph52%30.01 "Hg10 mi
5:53 PM61 °FBroken clouds.8 mph56%30.01 "Hg10 mi
4:53 PM62 °FBroken clouds.6 mph52%30.02 "Hg10 mi
3:53 PM61 °FScattered clouds.5 mph52%30.03 "Hg10 mi
2:53 PM60 °FScattered clouds.No wind58%30.04 "Hg10 mi
1:53 PM55 °FBroken clouds.3 mph74%30.11 "Hg10 mi
12:59 PM54 °FLight rain. Cloudy.5 mph80%30.37 "Hg10 mi
Weather by CustomWeather, © 2014

See weather overviewHow to use our weather pages